Location: Caltech
(34.1382°N, 118.1253°W)
Time: 10:54:49
(UTC-07:00)

Iridium 95 - Visible Passes

Search period start: 04 August 2015 00:00
Search period end: 14 August 2015 00:00
Orbit: 776 x 779 km, 86.4° (Epoch: 04 August)

Date Brightness Start Highest point End Pass type
(mag) Time Alt. Az. Time Alt. Az. Time Alt. Az.
05 Aug 7.1 05:16:58 10° NNE 05:21:47 38° E 05:26:39 10° SSE visible
06 Aug 8.2 04:44:18 10° NNE 04:48:01 20° ENE 04:51:54 10° SE visible
08 Aug 6.3 05:16:50 10° N 05:21:59 58° E 05:27:06 10° SSE visible
09 Aug 7.5 04:43:48 10° NNE 04:48:18 30° E 04:52:52 10° SE visible
10 Aug 8.3 04:11:31 10° NE 04:14:27 16° ENE 04:17:38 10° ESE visible
11 Aug 5.6 05:16:51 10° N 05:22:06 87° E 05:27:18 10° S visible
12 Aug 6.7 04:43:33 10° NNE 04:48:30 44° E 04:53:29 10° SSE visible
13 Aug 7.8 04:10:44 10° NNE 04:14:46 23° E 04:18:56 10° SE visible
